EW9605 Weather Reports


Display with metric or nautical units.
time (UTC)temp
F
wind
direction
speed
MPH
gust
MPH
rain 1hr
in
rain 24hr
in
rain mn
in
humidity
%
barometer
mb
20260507024124 76 0.0 0.0 0.00 0.00 0.00 84 1014.3
20260507023622 76 0.0 0.0 0.00 0.00 0.00 84 1014.3
20260507023221 76 0.0 0.0 0.00 0.00 0.00 84 1014.2
20260507022619 76 0.0 0.0 0.00 0.00 0.00 83 1014.4
20260507022118 77 0.0 0.0 0.00 0.00 0.00 83 1014.3
20260507021616 77 0.0 0.0 0.00 0.00 0.00 83 1014.2
20260507021135 77 0.0 0.0 0.00 0.00 0.00 83 1014.4
20260507020634 77 0.0 0.0 0.00 0.00 0.00 83 1014.4
20260507020132 77 0.0 0.0 0.00 0.00 0.00 83 1014.2
20260507015631 77 0.0 0.0 0.00 0.00 0.00 83 1014.3
20260507015129 77 0.0 0.0 0.00 0.00 0.00 83 1014.1
20260507014628 77 0.0 0.0 0.00 0.00 0.00 83 1014.2
20260507014127 77 0.0 0.0 0.00 0.00 0.00 83 1014.1
20260507013625 77 0.0 0.0 0.00 0.00 0.00 83 1014.1
20260507013123 77 0.0 0.0 0.00 0.00 0.00 82 1014.0
20260507012622 77 0.0 0.0 0.00 0.00 0.00 82 1014.1
20260507012121 77 0.0 0.0 0.00 0.00 0.00 82 1014.0
20260507011619 78 0.0 0.0 0.00 0.00 0.00 81 1014.1
20260507011118 78 259 2.0 2.0 0.00 0.00 0.00 81 1014.0
20260507010616 78 0.0 0.0 0.00 0.00 0.00 81 1014.2
20260507010135 78 0.0 0.0 0.00 0.00 0.00 80 1014.1
20260507005634 78 264 1.0 4.0 0.00 0.00 0.00 80 1014.1
20260507005132 78 0.0 0.0 0.00 0.00 0.00 79 1014.0
20260507004630 78 261 0.0 2.0 0.00 0.00 0.00 79 1014.0
20260507004129 79 0.0 0.0 0.00 0.00 0.00 78 1014.0
20260507003628 79 258 2.0 3.0 0.00 0.00 0.00 77 1013.8
20260507003146 79 0.0 0.0 0.00 0.00 0.00 76 1013.9
20260507002625 80 262 0.0 1.0 0.00 0.00 0.00 75 1014.0
20260507002123 80 249 1.0 4.0 0.00 0.00 0.00 74 1014.0
20260507001622 80 267 3.0 6.0 0.00 0.00 0.00 73 1014.1
20260507001121 81 272 3.0 6.0 0.00 0.00 0.00 72 1014.0
20260507000619 81 280 1.0 2.0 0.00 0.00 0.00 69 1014.0
20260507000118 81 269 2.0 3.0 0.00 0.00 0.00 67 1014.0
20260506235616 82 278 2.0 4.0 0.00 0.00 0.00 66 1013.9
20260506235134 82 269 3.0 3.0 0.00 0.00 0.00 64 1013.7
20260506234653 82 240 5.0 7.0 0.00 0.00 0.00 63 1014.0
20260506234132 83 279 2.0 4.0 0.00 0.00 0.00 62 1013.8
20260506233630 83 264 2.0 3.0 0.00 0.00 0.00 61 1013.7
20260506233129 84 256 3.0 4.0 0.00 0.00 0.00 60 1013.9
20260506232627 85 288 2.0 4.0 0.00 0.00 0.00 59 1013.9
20260506232307 86 254 4.0 6.0 0.00 0.00 0.00 57 1013.8
20260506231645 87 257 5.0 8.0 0.00 0.00 0.00 57 1013.8
20260506231123 87 265 2.0 6.0 0.00 0.00 0.00 57 1013.8
20260506230642 87 255 4.0 9.0 0.00 0.00 0.00 58 1013.8
20260506230120 88 303 2.0 7.0 0.00 0.00 0.00 58 1013.8
20260506225639 88 257 4.0 9.0 0.00 0.00 0.00 59 1013.9
20260506225117 87 262 5.0 8.0 0.00 0.00 0.00 59 1013.9
20260506224615 88 267 4.0 8.0 0.00 0.00 0.00 59 1013.7
20260506224134 88 273 5.0 10.0 0.00 0.00 0.00 58 1013.7
20260506223632 88 252 5.0 7.0 0.00 0.00 0.00 61 1013.7
20260506223131 88 264 5.0 10.0 0.00 0.00 0.00 60 1013.8
20260506222629 88 252 7.0 11.0 0.00 0.00 0.00 59 1013.6
20260506222128 88 230 5.0 9.0 0.00 0.00 0.00 61 1013.6
20260506221626 88 243 6.0 8.0 0.00 0.00 0.00 62 1013.6
20260506221125 88 230 6.0 8.0 0.00 0.00 0.00 60 1013.7
20260506220704 89 255 5.0 7.0 0.00 0.00 0.00 61 1013.7
20260506220123 89 258 5.0 10.0 0.00 0.00 0.00 60 1013.4
20260506215641 89 261 5.0 8.0 0.00 0.00 0.00 60 1013.5
20260506215120 90 258 4.0 6.0 0.00 0.00 0.00 60 1013.7
20260506214618 90 230 4.0 7.0 0.00 0.00 0.00 62 1013.6
20260506214117 89 229 5.0 8.0 0.00 0.00 0.00 60 1013.5
20260506213616 89 255 1.0 3.0 0.00 0.00 0.00 60 1013.6
20260506213135 90 247 5.0 8.0 0.00 0.00 0.00 58 1013.4
20260506212653 90 220 3.0 6.0 0.00 0.00 0.00 57 1013.6
20260506212152 90 236 6.0 10.0 0.00 0.00 0.00 58 1013.5
20260506211630 91 231 7.0 10.0 0.00 0.00 0.00 56 1013.7
20260506211149 91 236 3.0 8.0 0.00 0.00 0.00 57 1013.6
20260506210628 91 199 3.0 7.0 0.00 0.00 0.00 56 1013.6
20260506210126 90 224 2.0 10.0 0.00 0.00 0.00 60 1013.6
20260506205625 89 189 2.0 4.0 0.00 0.00 0.00 60 1013.4
20260506205123 90 257 6.0 10.0 0.00 0.00 0.00 59 1013.4
20260506204622 89 246 5.0 8.0 0.00 0.00 0.00 61 1013.6
20260506204120 89 232 8.0 11.0 0.00 0.00 0.00 60 1013.5
20260506203640 89 221 2.0 3.0 0.00 0.00 0.00 61 1013.6
20260506203118 89 239 4.0 8.0 0.00 0.00 0.00 61 1013.6
20260506202617 90 175 1.0 3.0 0.00 0.00 0.00 62 1013.5
20260506202116 90 214 2.0 6.0 0.00 0.00 0.00 60 1013.6
20260506201654 90 240 4.0 9.0 0.00 0.00 0.00 61 1013.6
20260506201133 89 208 5.0 7.0 0.00 0.00 0.00 62 1013.6
20260506200712 89 252 4.0 7.0 0.00 0.00 0.00 63 1013.6
20260506200131 89 231 9.0 11.0 0.00 0.00 0.00 63 1013.7
20260506195629 89 228 8.0 11.0 0.00 0.00 0.00 62 1013.7
20260506195128 90 224 3.0 6.0 0.00 0.00 0.00 64 1013.8
20260506194627 89 231 5.0 8.0 0.00 0.00 0.00 64 1013.7
20260506194125 89 245 5.0 9.0 0.00 0.00 0.00 62 1013.8
20260506193623 90 240 8.0 13.0 0.00 0.00 0.00 62 1013.8
20260506193122 89 230 6.0 9.0 0.00 0.00 0.00 64 1013.8
20260506192620 89 233 4.0 8.0 0.00 0.00 0.00 64 1014.0
20260506192139 89 225 5.0 9.0 0.00 0.00 0.00 64 1013.8
20260506191617 90 211 6.0 11.0 0.00 0.00 0.00 63 1013.9
20260506191136 89 241 3.0 6.0 0.00 0.00 0.00 63 1013.8
20260506190634 89 182 1.0 4.0 0.00 0.00 0.00 66 1014.0
20260506190132 88 246 4.0 7.0 0.00 0.00 0.00 65 1013.9
20260506185631 89 211 3.0 9.0 0.00 0.00 0.00 64 1014.1
20260506185150 89 201 2.0 7.0 0.00 0.00 0.00 65 1014.2
20260506184628 89 271 4.0 6.0 0.00 0.00 0.00 63 1014.2
20260506184147 90 220 9.0 14.0 0.00 0.00 0.00 64 1014.2
20260506183625 89 215 2.0 6.0 0.00 0.00 0.00 62 1014.2
20260506183124 89 245 2.0 6.0 0.00 0.00 0.00 62 1014.5
20260506182622 89 214 2.0 4.0 0.00 0.00 0.00 62 1014.6
20260506182121 90 211 6.0 8.0 0.00 0.00 0.00 60 1014.6
20260506181620 91 231 2.0 4.0 0.00 0.00 0.00 53 1014.7
20260506181119 90 186 0.0 1.0 0.00 0.00 0.00 56 1014.6
20260506180617 90 0.0 0.0 0.00 0.00 0.00 54 1014.7
20260506180116 90 158 1.0 1.0 0.00 0.00 0.00 54 1014.8
20260506175635 91 113 1.0 2.0 0.00 0.00 0.00 56 1014.8
20260506175133 90 197 0.0 1.0 0.00 0.00 0.00 58 1014.8
20260506174632 90 152 1.0 3.0 0.00 0.00 0.00 56 1014.8
20260506174131 90 150 1.0 3.0 0.00 0.00 0.00 56 1015.0
20260506173630 90 55 2.0 2.0 0.00 0.00 0.00 56 1015.1
20260506173129 90 230 0.0 1.0 0.00 0.00 0.00 58 1015.0
20260506172627 90 0.0 0.0 0.00 0.00 0.00 56 1015.0
20260506172126 90 300 0.0 1.0 0.00 0.00 0.00 59 1014.9
20260506171625 90 313 0.0 1.0 0.00 0.00 0.00 60 1015.1
20260506171144 89 0.0 0.0 0.00 0.00 0.00 58 1015.1
20260506170622 89 230 1.0 6.0 0.00 0.00 0.00 59 1015.1
20260506170121 89 171 1.0 3.0 0.00 0.00 0.00 58 1015.1
20260506165620 89 176 1.0 3.0 0.00 0.00 0.00 60 1015.3
20260506165119 88 159 2.0 7.0 0.00 0.00 0.00 63 1015.3
20260506164617 88 143 2.0 2.0 0.00 0.00 0.00 63 1015.2
20260506164116 87 175 1.0 2.0 0.00 0.00 0.00 63 1015.3
20260506163655 87 0.0 0.0 0.00 0.00 0.00 63 1015.4
20260506163134 88 0.0 0.0 0.00 0.00 0.00 61 1015.4
20260506162632 88 180 1.0 2.0 0.00 0.00 0.00 63 1015.4
20260506162131 87 177 3.0 4.0 0.00 0.00 0.00 65 1015.4
20260506161630 87 0.0 0.0 0.00 0.00 0.00 67 1015.6
20260506161129 86 135 1.0 2.0 0.00 0.00 0.00 65 1015.6
20260506160627 87 0.0 0.0 0.00 0.00 0.00 63 1015.7
20260506160126 86 171 2.0 7.0 0.00 0.00 0.00 67 1015.6
20260506155625 87 151 2.0 8.0 0.00 0.00 0.00 67 1015.5
20260506155124 87 0.0 0.0 0.00 0.00 0.00 65 1015.5
20260506154622 86 147 1.0 3.0 0.00 0.00 0.00 67 1015.4
20260506154121 86 166 3.0 7.0 0.00 0.00 0.00 68 1015.7
20260506153619 86 112 1.0 3.0 0.00 0.00 0.00 67 1015.5
20260506153118 85 115 1.0 2.0 0.00 0.00 0.00 68 1015.5
20260506152617 85 0.0 0.0 0.00 0.00 0.00 71 1015.4
20260506152116 85 180 2.0 3.0 0.00 0.00 0.00 71 1015.4
20260506151635 85 180 3.0 6.0 0.00 0.00 0.00 72 1015.5
20260506151134 85 0.0 0.0 0.00 0.00 0.00 71 1015.7
20260506150632 84 180 3.0 6.0 0.00 0.00 0.00 73 1015.5
20260506150131 84 0.0 0.0 0.00 0.00 0.00 74 1015.4
20260506145630 84 169 2.0 6.0 0.00 0.00 0.00 72 1015.3
20260506145129 83 0.0 0.0 0.00 0.00 0.00 73 1015.4
20260506144627 83 96 1.0 2.0 0.00 0.00 0.00 74 1015.4
20260506144147 83 0.0 0.0 0.00 0.00 0.00 76 1015.4
20260506143645 83 147 1.0 2.0 0.00 0.00 0.00 76 1015.4
20260506143204 82 149 0.0 2.0 0.00 0.00 0.00 77 1015.3
20260506142622 82 0.0 0.0 0.00 0.00 0.00 77 1015.4
20260506142121 82 157 4.0 7.0 0.00 0.00 0.00 77 1015.4
20260506141619 82 0.0 0.0 0.00 0.00 0.00 77 1015.4
20260506141118 81 111 2.0 3.0 0.00 0.00 0.00 78 1015.4
20260506140617 81 0.0 0.0 0.00 0.00 0.00 79 1015.4
20260506140116 80 0.0 0.0 0.00 0.00 0.00 80 1015.4
20260506135634 80 140 2.0 6.0 0.00 0.00 0.00 80 1015.5
20260506135133 80 0.0 0.0 0.00 0.00 0.00 81 1015.3
20260506134632 80 0.0 0.0 0.00 0.00 0.00 81 1015.5
20260506134130 80 143 1.0 7.0 0.00 0.00 0.00 81 1015.5
20260506133709 79 149 1.0 3.0 0.00 0.00 0.00 82 1015.4
20260506133208 79 160 1.0 2.0 0.00 0.00 0.00 83 1015.2
20260506132626 79 172 1.0 6.0 0.00 0.00 0.00 84 1015.4
20260506132125 78 171 4.0 7.0 0.00 0.00 0.00 85 1015.3
20260506131624 78 125 1.0 10.0 0.00 0.00 0.00 85 1015.1
20260506131122 77 0.0 0.0 0.00 0.00 0.00 85 1015.2
20260506130621 77 0.0 0.0 0.00 0.00 0.00 85 1015.1
20260506130140 76 0.0 0.0 0.00 0.00 0.00 87 1015.0
20260506125618 76 151 2.0 6.0 0.00 0.00 0.00 87 1015.2
20260506125117 75 0.0 0.0 0.00 0.00 0.00 87 1015.1
20260506124757 75 123 1.0 2.0 0.00 0.00 0.00 89 1015.0
20260506124135 74 0.0 0.0 0.00 0.00 0.00 89 1015.0
20260506123633 74 0.0 0.0 0.00 0.00 0.00 90 1015.1
20260506123132 73 0.0 0.0 0.00 0.00 0.00 90 1014.9
20260506122631 73 0.0 0.0 0.00 0.00 0.00 91 1015.0
20260506122130 72 0.0 0.0 0.00 0.00 0.00 91 1014.8
20260506121648 72 0.0 0.0 0.00 0.00 0.00 91 1014.8
20260506121126 72 0.0 0.0 0.00 0.00 0.00 93 1014.8
20260506120625 71 0.0 0.0 0.00 0.00 0.00 93 1014.7
20260506120124 71 0.0 0.0 0.00 0.00 0.00 93 1014.9
20260506115622 71 0.0 0.0 0.00 0.00 0.00 94 1014.8
20260506115121 70 0.0 0.0 0.00 0.00 0.00 94 1014.5
20260506114640 70 0.0 0.0 0.00 0.00 0.00 94 1014.7
20260506114119 70 0.0 0.0 0.00 0.00 0.00 95 1014.6
20260506113637 69 0.0 0.0 0.00 0.00 0.00 95 1014.5
20260506113116 69 0.0 0.0 0.00 0.00 0.00 94 1014.6
20260506112634 69 0.0 0.0 0.00 0.00 0.00 94 1014.6
20260506112133 69 0.0 0.0 0.00 0.00 0.00 94 1014.5
20260506111632 69 0.0 0.0 0.00 0.00 0.00 93 1014.4
20260506111130 68 0.0 0.0 0.00 0.00 0.00 93 1014.3
20260506110629 68 0.0 0.0 0.00 0.00 0.00 93 1014.2
20260506110128 68 0.0 0.0 0.00 0.00 0.00 93 1014.1
20260506105626 68 0.0 0.0 0.00 0.00 0.00 93 1014.1
20260506105125 69 0.0 0.0 0.00 0.00 0.00 93 1014.1
20260506104624 68 0.0 0.0 0.00 0.00 0.00 93 1014.1
20260506104143 68 0.0 0.0 0.00 0.00 0.00 93 1014.0
20260506103621 68 0.0 0.0 0.00 0.00 0.00 93 1013.9
20260506103120 69 0.0 0.0 0.00 0.00 0.00 93 1013.8
20260506102619 69 0.0 0.0 0.00 0.00 0.00 93 1013.9
20260506102117 68 0.0 0.0 0.00 0.00 0.00 93 1013.9
20260506101616 68 0.0 0.0 0.00 0.00 0.00 93 1013.7
20260506101155 69 0.0 0.0 0.00 0.00 0.00 93 1013.7
20260506100633 69 0.0 0.0 0.00 0.00 0.00 93 1013.7
20260506100132 69 0.0 0.0 0.00 0.00 0.00 93 1014.0
20260506095631 69 0.0 0.0 0.00 0.00 0.00 92 1013.6
20260506095130 69 0.0 0.0 0.00 0.00 0.00 92 1013.7
20260506094628 69 0.0 0.0 0.00 0.00 0.00 91 1013.8
20260506094127 69 0.0 0.0 0.00 0.00 0.00 91 1013.8
20260506093625 69 0.0 0.0 0.00 0.00 0.00 92 1013.6
20260506093124 69 0.0 0.0 0.00 0.00 0.00 91 1013.6
20260506092623 69 0.0 0.0 0.00 0.00 0.00 92 1013.6
20260506092122 69 0.0 0.0 0.00 0.00 0.00 91 1013.7
20260506091620 69 0.0 0.0 0.00 0.00 0.00 91 1013.8
20260506091119 69 0.0 0.0 0.00 0.00 0.00 91 1013.8
20260506090618 69 0.0 0.0 0.00 0.00 0.00 90 1013.6
20260506090116 69 0.0 0.0 0.00 0.00 0.00 90 1013.7
20260506085635 69 0.0 0.0 0.00 0.00 0.00 90 1013.7
20260506085134 69 0.0 0.0 0.00 0.00 0.00 90 1013.9
20260506084633 69 0.0 0.0 0.00 0.00 0.00 90 1013.9
20260506084151 69 0.0 0.0 0.00 0.00 0.00 90 1013.8
20260506083650 69 0.0 0.0 0.00 0.00 0.00 90 1013.8
20260506083128 69 0.0 0.0 0.00 0.00 0.00 90 1013.9
20260506082627 69 0.0 0.0 0.00 0.00 0.00 90 1013.7
20260506082146 69 0.0 0.0 0.00 0.00 0.00 89 1013.7
20260506081624 69 0.0 0.0 0.00 0.00 0.00 89 1013.8
20260506081123 69 0.0 0.0 0.00 0.00 0.00 89 1013.9
20260506080622 69 0.0 0.0 0.00 0.00 0.00 89 1013.8
20260506080120 69 0.0 0.0 0.00 0.00 0.00 89 1013.7
20260506073132 70 0.0 0.0 0.00 0.00 0.00 88 1013.8
20260506072631 70 0.0 0.0 0.00 0.00 0.00 88 1013.9
20260506072129 70 0.0 0.0 0.00 0.00 0.00 87 1014.0
20260506071628 70 0.0 0.0 0.00 0.00 0.00 87 1014.1
20260506071148 70 0.0 0.0 0.00 0.00 0.00 87 1014.0
20260506070625 70 0.0 0.0 0.00 0.00 0.00 86 1014.0
20260506070124 71 0.0 0.0 0.00 0.00 0.00 86 1014.1
20260506062134 71 0.0 0.0 0.00 0.00 0.00 84 1014.3
20260506061633 71 0.0 0.0 0.00 0.00 0.00 84 1014.2
20260506061131 72 0.0 0.0 0.00 0.00 0.00 84 1014.3
20260506060630 72 0.0 0.0 0.00 0.00 0.00 84 1014.1
20260506060148 72 0.0 0.0 0.00 0.00 0.00 84 1014.4
20260506051135 73 0.0 0.0 0.00 0.00 0.00 81 1014.9
20260506050634 73 0.0 0.0 0.00 0.00 0.00 81 1015.0
20260506050133 73 0.0 0.0 0.00 0.00 0.00 81 1014.8
20260506045130 73 0.0 0.0 0.00 0.00 0.00 80 1014.9
20260506044649 73 0.0 0.0 0.00 0.00 0.00 80 1014.9
20260506044128 74 0.0 0.0 0.00 0.00 0.00 79 1014.9
20260506043646 74 0.0 0.0 0.00 0.00 0.00 78 1014.9
20260506043125 74 0.0 0.0 0.00 0.00 0.00 78 1014.6
20260506042724 74 0.0 0.0 0.00 0.00 0.00 77 1014.8
20260506042122 74 0.0 0.0 0.00 0.00 0.00 77 1014.8
20260506041641 74 0.0 0.0 0.00 0.00 0.00 77 1014.6
20260506041119 75 0.0 0.0 0.00 0.00 0.00 77 1014.5
20260506040618 75 0.0 0.0 0.00 0.00 0.00 76 1014.7
20260506040117 75 0.0 0.0 0.00 0.00 0.00 75 1014.8
20260506035616 75 0.0 0.0 0.00 0.00 0.00 75 1014.6
20260506035154 75 111 0.0 2.0 0.00 0.00 0.00 75 1014.7
20260506034653 75 108 0.0 3.0 0.00 0.00 0.00 75 1014.7
20260506034132 75 0.0 0.0 0.00 0.00 0.00 75 1014.8
20260506033631 75 0.0 0.0 0.00 0.00 0.00 75 1014.9
20260506033129 75 0.0 0.0 0.00 0.00 0.00 75 1014.8
20260506032649 75 0.0 0.0 0.00 0.00 0.00 76 1014.7
20260506032127 75 117 0.0 2.0 0.00 0.00 0.00 77 1014.8
20260506031645 75 110 1.0 2.0 0.00 0.00 0.00 79 1014.7
20260506031124 75 0.0 0.0 0.00 0.00 0.00 82 1014.7
20260506030624 75 0.0 0.0 0.00 0.00 0.00 83 1014.7
20260506030122 74 0.0 0.0 0.00 0.00 0.00 84 1014.5
20260506025741 74 0.0 0.0 0.00 0.00 0.00 85 1014.7
20260506025119 74 0.0 0.0 0.00 0.00 0.00 85 1014.6
20260506024617 75 0.0 0.0 0.00 0.00 0.00 86 1014.6